Location: Helsinki
(60.1699°N, 24.9384°E)
Time: 16:53:40
(UTC+02:00)

S-56A Canister/Altair - Pass Details

Date: 03 November 2020
Orbit: 633 x 2500 km, 38.9° (Epoch: 29 November)

Event Time Altitude Azimuth Distance (km) Brightness Sun altitude
Rises 05:58:30 0° 215° (SW) 3,246 10.5 -13.8°
Drops below altitude 10° 06:04:20 10° 166° (SSE) 2,747 10.6 -13.1°
Maximum altitude 06:04:20 10° 166° (SSE) 2,748 10.6 -13.1°
Sets 06:11:42 0° 122° (ESE) 4,342 12.8 -12.2°
